{"data":{"norad_id":53404,"epoch":"2026-05-25T05:19:00.743232Z","epoch_age_seconds":55508,"freshness":"FRESH","line1":"1 53404U 22097S   26145.22153638  .00000909  00000+0  75224-4 0  9995","line2":"2 53404  53.2139 130.4903 0001145  66.2356 293.8756 15.08837226210207","mean_motion":15.08837226,"eccentricity":0.0001145,"inclination_deg":53.2139,"raan_deg":130.4903,"arg_perigee_deg":66.2356,"mean_anomaly_deg":293.8756,"bstar":7.5224e-5,"rev_number":21020,"period_min":95.437730139885,"perigee_km":538.95976970995,"apogee_km":540.54396626072,"semimajor_km":6917.8888679853,"source":"CELESTRAK","updated_at":"2026-05-25T13:38:17.398825Z"}}